Location: Chimay
(50.0486°N, 4.3171°E)
Time: 02:25:46
(UTC+00:00)

Aureole 2 - Pass Details

Date: 08 August 2020
Orbit: 365 x 900 km, 73.9° (Epoch: 25 September)

Event Time Altitude Azimuth Distance (km) Brightness Sun altitude
Exits shadow 22:03:37 61° 220° (SW) 539 4.6 -20.2°
Maximum altitude 22:04:10 82° 295° (WNW) 490 4.5 -20.3°
Drops below altitude 10° 22:08:08 10° 23° (NNE) 1,811 8.0 -20.6°
Sets 22:10:32 0° 24° (NNE) 2,809 9.0 -20.7°
